Theta_e
305 305 305 305 304 304 305 304 302 303 304 304 302 299 300 299 296 294 296 297 300 302 308 311 312 311 311 312 312 314 316 316 315 315 317 315 317 318 319 318 319 320 320 320 321 322 325 324 324 324 324 324 324 323 324 323 323 322 327 324 323 323 324 324 325 325 326 328 328 328 328 327 327 327 328 329 331 333 335 336 337 336 335 334 332 331 332
301 304 306 304 306 304 303 303 303 304 303 301 300 301 303 302 299 300 301 299 301 305 306 311 312 312 313 313 314 315 314 315 315 314 313 315 316 317 317 318 318 319 320 321 321 323 322 322 322 323 322 322 322 322 321 322 321 322 325 323 322 323 323 325 325 327 327 329 329 327 326 326 325 326 327 328 330 332 334 335 335 335 334 334 332 331 331
299 303 305 306 305 305 300 301 302 303 302 302 302 303 303 305 302 303 302 300 301 306 309 311 313 313 313 313 314 314 314 314 315 314 313 314 316 317 317 317 318 318 319 321 322 321 321 321 321 321 320 320 321 322 322 322 321 322 322 321 321 322 323 324 326 327 328 328 326 325 325 325 325 326 327 328 329 331 332 333 333 333 334 332 331 331 331
297 302 305 303 303 302 301 301 300 301 301 301 303 303 304 302 300 301 301 299 300 306 312 312 312 312 312 311 312 312 313 314 314 313 313 312 314 316 317 317 317 317 320 320 320 320 321 321 321 320 320 320 320 320 320 320 321 323 322 322 322 322 323 324 326 327 328 326 325 325 324 324 324 325 327 328 328 328 329 330 331 333 331 331 331 330 331
294 300 305 302 301 299 297 297 299 303 302 302 303 304 308 308 305 299 298 295 302 308 312 310 309 311 311 311 311 311 312 312 313 313 313 313 315 316 315 316 318 319 320 319 320 321 321 321 321 321 321 320 320 320 319 320 322 322 323 323 322 323 323 323 325 325 327 327 326 325 324 324 324 325 326 327 327 327 327 329 331 330 329 329 330 329 330
294 300 303 302 296 289 292 298 306 307 303 303 301 301 306 307 307 301 300 303 309 310 310 310 309 310 310 312 312 315 314 312 311 313 314 314 315 316 316 317 318 318 319 320 322 322 322 323 323 324 325 321 320 321 323 323 321 321 320 320 320 322 322 322 323 324 325 326 326 325 325 325 324 324 325 326 327 327 329 330 328 327 329 328 328 328 329
294 297 299 295 289 291 300 305 307 307 306 306 303 303 306 308 310 309 309 310 310 311 311 311 311 311 312 313 314 313 314 314 313 313 314 314 316 316 316 317 318 319 319 320 320 322 323 325 325 324 322 325 325 323 322 322 322 320 319 319 319 320 321 322 321 321 321 321 323 325 325 325 325 325 326 326 326 326 327 326 326 327 328 328 329 330 329
296 295 292 288 286 296 305 307 309 310 309 306 307 304 306 308 309 310 310 310 310 311 311 311 311 311 312 314 314 314 314 315 315 313 313 315 318 318 318 318 319 319 319 320 321 322 326 329 326 323 323 324 322 321 320 320 320 320 319 318 318 318 321 321 321 321 320 321 323 325 326 326 326 326 326 326 325 325 327 327 329 329 330 328 328 328 328
292 290 291 294 297 299 300 303 304 306 303 304 302 294 302 310 310 312 311 311 311 311 311 311 311 313 314 312 313 317 315 316 315 315 315 318 317 319 318 319 319 321 321 321 322 327 325 324 324 324 324 324 322 321 319 320 320 318 318 317 318 319 323 320 321 321 321 321 323 325 326 326 326 326 325 325 325 326 325 326 327 329 329 327 329 328 328
295 292 289 290 290 289 292 301 307 311 311 311 309 303 300 309 309 311 311 309 310 310 311 311 311 312 308 306 309 315 319 319 318 318 318 318 319 320 320 320 321 322 322 323 325 326 323 323 324 324 325 324 323 321 321 320 319 319 318 318 319 321 321 320 320 319 321 322 322 324 325 326 326 326 326 325 324 326 325 325 326 329 329 328 329 328 329
296 293 288 287 287 291 297 301 305 309 310 311 308 301 295 305 310 312 312 310 310 310 310 310 310 307 302 301 306 315 318 320 320 320 318 319 320 320 320 320 320 322 322 323 326 327 322 322 323 324 324 323 321 321 322 321 321 319 319 319 320 320 319 319 319 320 322 322 322 323 325 327 327 326 326 325 326 325 323 324 325 328 330 328 328 327 329
294 292 290 288 293 295 301 306 308 308 309 309 303 293 291 302 310 313 312 311 311 311 311 311 308 306 300 301 306 314 319 320 322 320 317 317 318 319 319 319 321 322 325 328 323 321 322 322 323 325 325 323 325 323 323 322 320 319 320 321 321 321 320 320 321 323 322 323 323 324 325 327 328 327 328 326 323 322 322 322 323 326 326 327 327 327 329
296 297 290 290 294 302 305 309 308 309 311 306 295 289 297 307 311 312 311 311 312 312 312 309 306 307 308 308 312 317 317 317 317 320 317 319 319 318 319 321 331 322 321 320 319 320 320 322 324 324 322 321 323 328 327 322 323 323 323 322 322 321 321 320 321 321 322 322 323 325 326 326 328 329 325 323 323 322 323 323 321 323 325 326 327 327 328
294 293 292 291 293 297 305 309 312 312 307 295 290 297 305 310 311 312 312 312 314 312 312 309 308 309 314 317 314 314 316 317 317 318 317 318 318 319 327 331 326 318 320 319 320 322 322 323 324 322 321 321 323 322 321 321 322 323 324 324 323 320 319 319 321 322 321 323 326 327 328 328 326 325 323 323 324 324 324 322 320 319 321 324 327 326 327
295 293 292 290 287 298 310 310 308 310 301 298 302 310 315 313 311 312 313 311 313 313 311 313 313 314 313 312 312 314 315 315 315 315 315 314 317 320 322 322 328 320 318 319 320 321 322 323 324 322 321 321 322 324 321 323 324 324 326 325 323 321 320 321 322 322 321 321 324 327 329 328 324 322 322 323 323 324 323 322 320 317 317 319 319 321 324
291 291 290 289 295 301 309 308 301 305 308 309 311 311 309 312 311 310 311 312 313 312 313 312 313 314 313 314 313 313 313 315 315 315 314 314 317 318 319 319 322 326 318 318 317 317 319 321 320 321 322 322 323 324 321 323 322 323 324 324 322 321 323 321 319 318 320 323 319 319 321 323 322 321 322 323 323 322 321 321 318 317 315 315 314 315 319
297 294 294 300 304 307 309 310 307 309 312 313 314 310 309 308 310 310 308 312 315 315 314 314 313 313 313 312 312 313 312 313 314 314 314 314 315 314 314 317 324 322 317 317 318 318 318 320 320 321 322 321 325 324 322 324 324 324 325 324 323 321 320 317 317 318 318 317 318 317 317 318 320 320 320 320 319 319 320 319 317 316 315 315 313 314 318
309 308 307 308 309 311 312 311 312 312 312 315 313 311 310 310 309 311 309 312 313 313 312 311 313 312 311 312 313 314 313 313 314 316 314 314 314 314 314 317 324 319 319 319 318 318 319 320 321 324 322 321 320 322 321 322 323 322 324 324 322 320 318 317 316 317 317 317 317 317 318 318 320 319 319 319 317 317 317 317 317 317 316 316 314 314 315
300 294 307 308 308 310 309 308 309 310 310 315 314 311 312 312 314 315 314 313 313 313 314 312 311 311 313 314 313 315 313 312 312 312 313 313 314 314 315 318 325 317 317 317 318 319 319 319 323 324 322 321 322 322 323 324 323 322 323 323 324 321 316 315 315 317 320 317 317 316 315 315 314 316 316 315 315 315 314 314 316 316 317 316 314 313 315
295 298 304 307 308 308 310 308 308 309 311 312 313 313 313 313 314 315 316 313 312 313 311 311 310 309 310 310 309 310 313 312 312 312 312 314 317 315 316 319 322 316 316 316 317 318 319 319 322 323 323 322 322 321 322 322 320 320 324 323 320 316 315 316 318 319 318 329 321 312 313 314 313 314 315 316 314 314 313 316 316 316 315 315 313 313 313
302 304 304 306 305 307 309 311 310 311 311 311 311 312 312 312 311 311 312 313 312 312 311 311 312 311 312 315 313 314 313 315 315 316 316 317 318 319 319 320 321 317 317 318 317 319 319 319 319 319 320 322 322 320 318 319 318 320 321 326 320 314 316 316 316 323 315 319 316 313 312 314 315 314 315 317 315 315 316 319 317 316 316 314 316 314 316
292 295 300 304 298 300 306 309 311 312 312 311 311 311 311 311 311 311 311 313 315 315 314 311 312 313 314 313 313 313 314 314 313 316 318 319 319 319 320 321 319 318 321 318 318 319 319 318 318 318 319 319 319 322 319 320 320 317 322 320 319 316 315 313 315 320 316 314 315 315 315 314 314 315 326 312 311 315 316 318 312 304 303 313 315 315 317
293 299 304 305 302 303 306 309 311 313 312 310 310 310 310 311 312 313 311 311 311 313 313 314 313 312 311 313 313 314 314 313 314 317 318 319 318 318 319 318 318 318 318 321 320 319 319 319 319 321 321 321 320 321 320 320 320 319 320 319 318 315 316 314 317 319 316 315 316 315 314 314 313 315 316 316 307 306 310 313 305 299 297 294 296 300 311
303 305 309 309 306 305 307 310 312 312 312 310 310 310 310 310 313 314 313 312 311 311 312 313 313 311 311 312 312 313 313 313 313 314 315 318 319 319 319 318 317 317 318 319 319 319 319 319 319 318 321 321 319 321 321 319 319 317 317 318 317 316 315 314 322 328 316 317 319 317 315 314 314 315 313 313 315 309 305 305 303 299 298 298 296 294 295
304 307 309 309 308 308 310 310 310 312 317 311 310 310 312 314 316 317 315 314 313 313 313 313 315 314 312 313 312 312 313 315 316 314 317 320 317 316 317 317 315 316 317 318 318 318 318 318 318 319 319 320 320 322 320 320 319 316 316 318 317 315 315 320 323 329 321 317 319 317 316 316 315 315 313 313 312 314 315 306 305 304 301 299 298 296 293
309 309 310 310 310 309 311 308 309 309 310 312 312 312 318 329 318 315 313 313 314 315 315 315 314 315 313 314 315 315 314 314 319 319 313 313 314 316 314 315 316 317 317 316 316 317 317 318 319 320 320 321 320 320 323 320 319 318 319 319 320 317 315 316 317 317 318 318 316 315 315 316 316 315 315 315 314 313 312 313 315 310 305 300 296 298 298
310 311 308 306 307 309 308 306 306 310 310 311 311 310 311 315 321 315 314 315 317 318 317 316 316 316 317 318 320 316 313 317 318 313 312 312 312 312 312 313 314 314 316 315 315 317 322 323 322 321 321 322 320 320 320 320 318 317 318 318 318 327 329 327 316 315 315 315 315 315 317 317 315 316 316 317 318 316 313 312 313 312 313 315 305 293 300
309 309 307 303 303 304 306 308 310 310 311 311 310 310 310 310 310 310 311 313 315 315 316 317 317 315 315 315 313 314 316 314 311 312 312 313 313 313 313 313 314 314 315 316 316 320 323 320 319 318 318 319 320 321 322 321 319 318 318 317 319 318 317 322 322 318 317 316 315 316 316 315 317 317 318 318 317 316 312 315 315 313 314 313 313 305 297
309 308 309 306 305 308 310 311 310 310 310 313 312 310 311 310 309 310 309 310 314 314 313 315 318 317 314 313 314 312 312 312 313 313 313 313 315 316 314 313 312 314 316 317 317 316 318 317 316 316 318 319 320 322 323 322 319 319 318 318 318 318 316 315 315 316 317 319 318 318 320 316 315 315 317 318 319 317 315 314 315 314 311 313 313 313 312
308 309 310 310 311 311 310 309 308 309 311 310 311 311 311 311 311 310 311 312 312 313 312 314 314 315 316 315 315 316 315 313 313 314 315 316 315 313 315 315 314 317 317 317 317 319 319 318 318 319 321 324 325 324 321 320 319 321 320 320 318 315 315 317 316 316 316 317 318 320 318 316 315 316 317 317 317 316 317 316 316 314 312 313 315 312 311
310 311 312 312 312 311 310 309 309 310 311 310 311 310 311 311 311 310 311 311 311 311 313 315 315 315 315 315 314 315 315 314 313 314 314 314 313 314 314 314 313 314 314 315 317 319 318 318 318 317 319 321 319 318 318 317 317 318 319 319 319 320 319 319 319 317 317 318 318 318 318 317 317 319 319 317 316 315 314 314 314 313 314 313 313 312 311
310 311 312 311 311 310 309 309 308 309 310 311 310 309 310 309 308 308 310 310 310 311 311 312 312 314 316 314 314 315 314 312 312 314 314 313 314 314 316 317 320 321 317 317 318 319 318 317 316 317 318 316 318 318 319 319 319 318 318 321 319 318 318 319 318 319 320 321 318 318 318 316 315 316 316 316 315 315 314 313 312 313 313 312 311 309 309
309 307 307 308 310 309 308 308 309 309 309 309 309 309 309 310 310 311 310 311 312 312 311 311 310 310 311 315 314 314 313 312 311 311 312 312 314 316 317 317 317 316 316 318 318 319 318 317 317 319 317 318 319 319 320 319 319 319 319 320 320 322 323 319 318 318 320 318 317 316 315 315 314 314 314 316 315 315 314 313 312 311 311 311 310 309 306
308 307 308 309 308 307 307 308 309 309 309 310 310 309 309 309 309 310 310 312 311 310 309 309 309 310 312 312 311 312 311 310 310 310 312 314 316 317 318 318 316 316 317 318 318 318 318 318 317 318 317 315 317 318 318 317 317 317 319 319 319 318 317 317 318 318 316 316 315 315 314 314 313 312 313 313 313 313 313 311 311 310 308 308 308 308 304
310 311 312 313 312 312 312 310 309 309 309 308 308 309 309 308 308 311 314 309 308 308 309 309 309 309 310 310 310 309 309 309 309 311 312 313 315 316 316 316 316 316 315 315 315 315 316 317 314 313 312 312 311 313 317 317 317 317 317 317 317 315 315 316 315 315 315 313 312 310 310 309 309 311 311 309 308 308 308 309 308 308 306 305 305 306 305
312 311 311 311 311 312 311 310 311 310 309 308 308 308 308 308 307 308 308 309 310 310 309 309 308 309 309 309 310 310 310 311 312 313 314 315 316 316 315 315 315 312 310 309 311 313 314 316 319 318 314 312 312 315 316 315 314 315 314 313 313 313 313 312 311 311 311 309 309 309 307 308 308 308 307 306 306 305 305 305 304 305 304 304 305 304 303
312 311 310 310 310 310 310 310 310 310 309 309 309 310 309 308 308 309 311 310 310 309 309 309 308 307 308 308 310 311 312 313 315 315 316 316 317 316 315 313 312 310 308 306 308 312 314 316 316 316 311 310 312 314 317 318 312 311 311 310 309 309 308 307 307 306 306 306 305 304 304 302 300 301 304 302 303 303 303 302 303 303 303 304 304 303 302
312 312 311 310 310 310 310 310 312 311 311 311 312 314 312 309 309 309 310 311 310 309 310 309 309 309 310 310 309 309 311 313 315 316 316 315 315 313 311 309 307 307 307 307 311 313 312 314 314 310 307 308 310 313 315 316 315 308 307 307 307 307 307 306 306 306 304 303 304 301 300 299 297 297 298 298 299 301 301 301 302 301 301 301 302 302 302
311 312 313 312 312 311 311 312 311 310 310 309 309 311 315 311 311 309 308 309 310 314 310 308 309 308 307 307 307 308 310 312 314 313 312 312 313 309 307 307 308 309 310 312 310 310 313 313 311 307 307 307 310 312 314 315 313 306 306 306 305 305 305 304 304 305 305 304 302 301 300 299 299 298 297 297 298 299 301 301 299 300 299 299 299 299 299
310 310 311 312 311 310 310 310 311 312 312 312 311 310 311 311 309 309 309 309 310 315 309 309 308 307 307 308 307 307 309 311 312 311 311 310 309 307 307 308 309 310 310 311 311 310 313 314 310 307 308 308 309 309 312 312 311 307 304 304 304 304 303 304 302 301 301 300 301 303 300 300 299 299 299 298 297 298 297 298 298 298 298 298 298 298 299
310 311 311 311 311 311 310 310 310 312 312 313 313 312 312 311 311 309 309 309 309 310 309 308 308 309 308 308 308 309 311 313 312 311 312 311 309 307 305 304 308 311 310 308 309 310 313 312 309 305 306 307 308 311 308 310 306 303 303 303 302 302 301 301 300 300 300 300 301 298 299 299 299 298 298 297 297 296 297 296 297 297 295 295 295 296 297
311 311 311 311 311 311 311 311 311 312 312 314 315 314 313 313 312 310 311 311 311 310 309 310 314 310 310 311 311 312 311 312 312 312 312 310 307 305 303 303 307 307 309 308 308 307 305 306 309 310 305 305 308 310 309 307 302 302 301 301 301 302 301 300 300 299 299 299 297 296 299 298 297 297 297 297 296 296 296 296 294 296 294 295 295 295 295
311 311 311 311 310 311 311 310 311 312 313 313 314 314 313 313 312 311 311 310 309 309 310 311 315 314 312 309 309 308 309 310 308 308 308 308 308 306 304 305 308 308 310 308 305 303 305 306 307 308 310 308 306 307 306 300 300 300 301 302 302 301 301 299 298 298 297 294 294 295 295 296 295 295 295 294 294 295 295 293 292 292 292 291 292 294 294
311 310 309 309 310 312 311 312 312 312 311 311 312 312 312 311 311 311 310 310 310 311 309 308 309 309 310 309 308 307 307 307 306 305 304 304 305 306 307 306 306 308 309 307 305 304 304 306 306 308 310 308 307 306 302 299 298 298 298 298 299 298 299 298 297 298 296 297 296 293 294 298 296 294 294 293 293 292 293 291 290 290 291 291 291 291 292
309 309 310 310 310 310 310 310 311 311 311 312 312 311 311 311 311 311 310 310 311 311 312 309 308 308 308 308 308 308 308 308 307 307 304 304 304 305 309 310 307 306 307 307 304 304 303 304 307 308 307 305 305 304 298 298 298 298 297 297 296 296 296 295 295 296 297 296 294 295 296 293 292 291 291 293 294 292 291 290 290 290 291 291 291 290 290
309 311 312 316 310 309 309 310 312 313 313 313 313 315 312 310 311 311 310 310 310 309 308 308 308 308 307 307 308 307 306 306 307 307 307 304 303 303 307 308 307 307 307 306 303 301 301 307 306 305 304 304 303 299 297 299 298 295 295 295 296 297 294 293 293 294 294 295 293 291 290 290 290 290 289 289 289 291 292 293 291 289 290 290 290 290 290
309 309 309 309 309 311 312 311 313 312 310 309 308 308 311 312 311 309 309 309 309 309 309 309 310 309 308 307 304 302 301 302 302 304 305 307 311 310 311 310 309 307 305 303 302 301 304 305 305 304 304 303 302 296 294 294 294 294 294 294 294 294 294 292 292 291 292 293 295 295 294 293 290 289 292 290 289 290 290 291 289 289 290 292 291 292 292
309 309 309 309 309 309 309 309 308 307 306 307 306 309 311 310 310 310 310 310 310 309 309 309 309 309 308 308 307 306 303 302 299 299 302 303 304 306 304 302 305 307 306 305 305 305 305 304 304 304 303 303 300 294 295 294 295 294 293 293 292 291 289 289 290 291 292 292 291 288 288 287 287 289 290 288 289 290 289 290 290 290 290 290 289 289 290
308 309 309 310 309 309 308 308 309 309 306 308 310 309 311 310 309 309 309 309 309 308 308 308 307 304 305 307 305 303 307 307 301 299 302 302 302 302 304 308 307 305 303 300 299 300 303 302 302 301 301 300 293 293 293 295 297 297 296 294 295 292 291 290 289 290 290 291 290 291 289 289 287 287 288 289 290 290 291 290 290 290 289 289 289 290 290
308 308 308 307 307 306 307 306 306 306 308 311 308 310 311 310 308 307 309 307 306 309 304 304 304 304 303 303 303 303 302 303 303 303 303 303 302 303 306 305 304 303 302 299 301 300 303 302 300 300 299 295 296 297 295 294 295 296 296 297 295 293 295 295 294 294 293 294 291 292 291 291 289 293 293 291 291 290 290 289 289 290 291 291 290 289 289
308 307 307 311 310 311 310 307 306 308 309 309 310 311 312 310 309 311 308 308 307 306 304 304 303 302 302 302 303 304 305 306 307 308 304 304 304 307 308 307 304 303 302 301 298 293 293 293 294 298 297 296 294 296 297 295 295 296 296 295 295 294 294 295 294 292 291 292 292 291 291 290 289 287 289 290 290 289 290 291 290 289 289 289 289 290 290
306 308 309 308 306 305 305 306 307 307 309 311 310 311 310 311 310 310 310 313 308 308 306 304 302 304 304 304 305 303 303 303 303 302 303 301 298 298 304 306 302 302 297 295 293 294 295 298 299 299 300 294 293 295 298 298 296 295 295 296 296 294 295 296 295 293 293 293 292 291 292 290 290 290 289 290 290 290 290 290 290 290 290 290 289 290 290
Wind_Speed
4 5 4 3 2 5 3 4 5 7 9 2 4 5 8 7 8 11 7 7 7 8 11 15 16 17 17 13 10 9 11 9 6 5 5 4 4 4 5 4 4 4 4 4 4 4 4 3 3 2 1 0 0 1 2 3 3 3 3 3 3 3 3 4 5 5 6 5 5 5 6 6 6 6 7 6 6 6 6 6 6 6 6 6 7 8 7
1 1 1 0 1 3 5 5 8 10 9 8 6 6 5 9 7 11 11 8 13 13 8 9 5 5 7 6 6 6 8 9 8 7 5 6 6 6 6 6 6 6 6 5 5 4 4 3 2 2 0 1 0 1 2 3 3 3 3 3 3 4 4 5 5 5 5 5 4 4 5 5 6 6 6 7 7 7 7 7 7 7 6 6 6 7 8
2 3 5 3 3 2 4 5 7 8 7 8 6 4 3 7 6 6 7 5 9 7 3 4 7 10 8 8 9 11 9 7 8 7 6 6 7 6 7 7 8 7 6 6 5 4 4 3 3 2 1 2 2 2 2 3 4 4 3 4 4 4 5 5 5 5 5 4 4 4 4 5 5 6 6 7 8 8 7 7 7 6 5 7 7 7 7
2 2 2 4 6 5 2 4 5 6 7 5 3 4 5 4 6 1 2 1 7 4 4 6 9 11 13 12 9 7 6 7 7 8 7 7 7 9 9 9 8 6 6 6 5 5 4 4 4 3 3 3 3 3 3 4 4 3 4 4 5 5 5 5 5 5 5 4 4 5 4 4 5 5 6 6 7 7 8 9 7 6 6 6 7 6 6
2 4 1 2 2 5 8 6 4 2 4 4 5 4 3 1 3 3 1 4 5 5 7 11 6 10 8 9 8 6 7 7 8 9 8 8 9 10 10 9 7 6 7 6 6 5 4 5 4 4 5 4 4 4 4 5 3 3 4 4 5 5 5 4 5 4 4 4 4 5 6 5 5 5 6 7 7 7 8 8 7 7 7 5 7 7 6
2 3 1 1 4 3 8 6 2 2 5 6 7 7 4 3 3 4 5 4 6 6 7 14 11 12 12 11 7 10 13 10 8 8 9 9 9 9 8 7 7 6 6 5 6 7 6 5 5 6 7 5 5 5 5 4 4 4 4 4 3 5 4 4 5 4 4 4 4 5 6 5 5 5 6 7 7 6 7 7 6 7 8 6 6 6 6
2 1 3 3 6 9 7 7 7 4 5 5 7 9 5 3 3 7 9 9 9 8 8 10 9 8 6 6 10 6 9 11 10 11 9 8 8 9 7 6 6 7 8 7 5 5 5 6 4 5 5 5 4 4 4 5 4 4 4 3 4 4 4 5 4 4 4 3 4 5 5 5 5 6 6 7 8 7 6 7 6 7 8 6 6 6 6
1 1 2 2 6 6 5 8 10 9 5 5 2 1 2 5 5 10 10 8 6 5 5 4 5 8 8 5 5 9 9 10 11 9 9 8 8 8 9 10 9 8 7 9 8 8 6 5 5 6 6 5 4 5 4 4 4 4 4 3 4 4 4 4 4 4 4 4 5 5 5 5 5 6 6 7 8 7 7 6 5 5 6 4 5 5 5
3 4 6 9 2 5 6 5 6 1 2 2 3 3 1 4 2 7 12 8 6 7 7 8 5 5 6 4 4 4 6 7 6 10 9 9 9 9 8 8 9 9 9 8 8 7 6 6 5 6 5 4 4 4 4 5 4 5 4 4 4 4 5 5 5 5 4 4 5 6 5 5 5 6 6 8 8 6 6 6 5 5 5 4 4 5 4
4 4 1 3 2 4 6 7 8 3 4 3 2 5 1 5 6 2 12 10 9 8 5 6 6 5 7 2 5 6 6 8 8 6 5 6 7 8 7 5 5 6 6 6 6 7 6 6 6 5 4 4 4 4 5 5 4 4 4 5 5 5 5 6 6 5 5 4 5 6 6 6 6 6 5 5 6 5 5 7 7 5 5 4 4 5 3
2 1 3 4 4 7 8 9 9 5 5 5 3 4 1 3 2 2 9 11 10 11 11 7 5 6 5 6 7 9 7 8 8 7 4 6 7 8 8 8 7 7 7 8 7 4 4 4 6 5 5 5 5 6 4 4 4 4 5 5 4 5 6 5 5 5 5 5 5 5 5 6 5 5 5 6 7 6 4 4 6 5 4 3 3 4 4
5 5 4 5 3 4 6 8 3 6 3 2 4 3 4 3 1 1 5 10 10 7 7 7 6 8 5 6 7 7 11 4 2 5 7 5 6 5 4 4 7 8 6 4 4 5 5 7 5 5 5 4 5 4 5 4 4 5 6 6 5 5 5 5 4 5 5 5 6 5 5 5 5 4 4 5 5 6 6 4 7 5 3 2 3 4 5
6 9 3 1 3 3 3 2 2 3 1 2 2 8 7 3 1 3 6 6 6 6 6 5 5 7 6 4 3 2 5 3 4 4 5 9 9 8 6 5 7 6 6 6 8 8 7 6 5 5 4 4 5 5 5 4 5 6 6 5 5 5 4 4 4 5 5 4 5 6 4 4 5 5 4 5 6 5 7 7 6 6 3 3 3 4 4
8 8 8 7 3 5 3 2 0 1 1 5 7 5 3 7 4 4 6 6 5 6 7 4 3 3 3 2 4 6 6 8 9 11 9 4 3 4 7 9 7 5 4 4 4 4 4 5 6 5 5 4 5 5 4 5 7 6 4 5 5 4 4 4 5 5 4 5 4 3 4 4 4 6 6 5 5 5 6 5 4 4 4 3 4 4 3
1 2 2 1 3 4 3 2 2 2 2 5 6 2 1 3 4 4 2 5 4 5 2 3 3 4 4 4 5 5 6 7 8 7 6 6 7 7 5 5 4 6 5 5 6 7 6 6 5 5 5 5 6 4 5 8 7 5 5 5 5 4 4 4 5 4 4 4 4 3 3 4 4 5 6 6 7 5 5 5 4 3 3 3 3 3 3
7 4 4 5 7 6 3 5 3 2 5 7 6 6 5 4 4 5 3 1 4 4 6 4 2 4 4 1 4 5 5 6 6 5 5 5 6 6 7 8 7 7 6 6 7 6 6 5 4 4 5 7 6 5 8 8 4 4 4 3 4 4 4 4 4 4 4 4 3 4 4 4 4 4 5 5 6 4 3 4 4 4 3 3 3 4 4
4 5 5 4 4 8 5 5 4 6 6 7 9 7 6 4 1 2 5 3 3 5 6 4 2 1 3 3 4 6 7 6 7 8 9 11 11 10 10 9 8 7 9 9 7 5 5 5 5 4 5 6 6 5 5 4 4 4 4 4 5 4 4 4 3 3 3 3 3 3 3 2 2 3 4 4 4 5 4 4 4 4 2 1 2 3 3
1 0 2 3 1 1 1 0 4 6 4 0 1 5 2 1 3 5 5 5 5 3 3 3 0 2 3 3 3 4 4 7 6 8 8 8 7 7 6 5 6 7 5 5 5 6 7 7 6 6 5 6 6 6 3 3 4 4 4 4 4 3 4 3 2 2 3 2 2 3 3 2 1 2 2 3 3 5 4 5 4 4 3 1 2 2 3
4 2 1 1 2 1 2 4 4 5 2 3 3 3 3 2 2 3 4 7 6 5 4 3 3 3 1 2 4 2 1 4 4 5 8 8 8 7 7 6 7 5 6 6 7 7 8 6 6 6 6 5 7 5 4 6 6 4 4 4 4 3 3 2 3 1 1 0 1 3 3 3 3 3 3 3 3 4 4 5 5 4 4 2 2 2 3
4 2 1 2 7 8 6 4 5 6 8 9 6 4 5 4 3 4 3 4 3 2 3 0 0 3 1 2 5 4 4 6 7 7 7 7 4 5 6 6 6 6 6 7 7 6 5 5 4 5 4 4 3 2 4 5 5 2 3 4 4 4 2 1 1 0 0 2 1 3 3 2 4 5 5 3 3 4 4 4 5 7 7 5 4 3 4
1 1 3 6 9 9 6 6 4 4 6 7 5 4 5 5 7 5 5 4 3 4 3 2 1 1 3 1 2 2 3 3 3 4 4 5 5 5 5 6 8 10 9 8 6 4 6 5 4 4 4 4 3 2 3 3 2 1 3 3 4 3 1 1 2 1 1 1 2 3 2 3 3 3 3 4 3 4 2 1 2 4 6 7 5 4 3
2 1 3 2 4 1 1 1 2 3 4 6 5 4 5 5 5 5 5 2 2 5 4 5 4 4 1 2 1 5 6 7 7 7 7 7 7 6 7 7 8 7 7 6 5 5 7 5 3 3 4 5 4 2 3 1 0 0 0 1 3 4 3 2 3 3 1 2 3 2 2 3 3 4 3 1 2 1 4 9 8 1 4 3 5 5 4
2 4 5 3 4 5 4 5 4 4 4 5 6 5 5 4 4 4 4 3 4 7 5 4 7 5 4 1 1 2 3 5 6 7 8 8 6 6 6 5 6 7 6 4 4 6 7 4 4 4 5 5 4 3 3 2 1 1 2 2 2 2 3 2 1 2 2 2 2 3 3 3 2 3 5 6 2 3 4 5 7 11 8 6 9 8 5
1 6 7 7 6 7 4 4 4 4 3 6 5 4 4 4 4 3 4 3 6 5 4 3 3 5 3 1 3 4 4 3 4 4 4 5 6 6 5 6 7 6 5 4 5 7 6 4 4 4 3 3 3 3 3 2 3 3 3 3 3 4 4 3 2 3 3 2 3 3 4 3 1 1 4 6 8 6 5 7 9 8 9 10 9 8 5
3 3 3 4 5 5 5 7 4 4 4 6 7 5 5 5 4 3 3 3 3 8 6 3 1 1 4 1 3 5 6 4 3 3 4 4 3 2 3 4 4 4 4 4 5 4 4 4 4 3 3 4 3 3 3 2 3 3 4 4 3 3 4 3 3 3 3 3 3 3 4 3 3 3 4 4 5 8 7 5 4 5 10 11 11 10 7
6 5 6 3 4 5 4 4 5 5 4 5 4 2 4 5 5 7 5 4 4 5 6 4 3 1 2 3 2 3 3 2 2 1 1 1 1 1 2 3 3 2 3 3 4 4 5 6 5 3 3 5 4 3 1 1 2 3 3 3 4 4 4 5 4 4 4 4 4 4 3 0 1 3 3 3 3 3 4 8 8 4 6 9 11 11 8
7 7 6 5 3 0 1 7 4 3 4 5 8 6 6 6 7 7 5 5 5 5 6 4 4 2 1 2 2 3 5 3 3 3 3 2 2 4 3 2 2 2 3 4 5 5 6 6 4 4 5 4 2 3 3 3 3 4 4 4 4 5 7 4 4 4 3 3 3 2 0 0 2 3 4 4 4 3 2 3 4 5 6 7 7 9 7
8 10 10 7 7 7 3 4 7 5 5 5 5 5 4 4 5 7 6 4 4 4 3 3 4 3 2 1 4 4 3 4 4 3 3 4 3 2 2 1 1 2 3 4 4 4 3 1 0 1 3 5 4 4 5 5 4 5 5 4 4 4 4 3 1 1 2 2 1 0 0 2 2 3 3 4 5 3 3 3 4 5 6 6 4 3 2
3 2 1 1 6 7 5 5 6 6 5 3 4 4 4 7 6 6 4 2 3 3 3 2 1 1 1 2 3 4 5 4 4 5 5 4 3 3 3 3 4 3 3 2 0 2 4 6 4 3 5 5 5 5 5 5 5 6 5 4 3 3 3 3 3 3 1 2 3 4 4 3 3 3 4 5 5 6 5 6 6 5 5 6 7 8 5
5 7 9 8 6 6 7 5 5 4 5 5 9 7 6 9 8 7 6 4 3 2 1 1 0 1 1 2 4 4 4 5 5 4 3 4 4 4 3 3 3 4 4 3 2 2 2 1 4 5 4 5 5 5 3 3 4 5 5 5 5 4 4 5 3 3 5 6 5 6 5 4 3 4 6 6 6 6 6 7 7 7 7 8 8 8 9
7 8 10 8 8 7 7 5 5 6 7 7 8 8 7 8 8 6 4 3 4 3 2 0 1 2 3 4 2 1 1 2 3 3 3 3 3 3 2 3 6 4 4 3 5 6 7 6 6 7 6 5 7 9 10 8 5 7 7 6 3 2 5 5 5 5 6 5 5 6 6 6 6 6 6 6 6 7 7 7 7 7 7 8 9 10 10
10 9 9 8 8 8 6 5 7 8 7 7 10 9 6 7 8 6 4 4 4 3 4 6 5 4 4 3 1 2 2 3 1 1 1 1 0 0 1 3 6 7 6 6 5 6 4 4 6 9 8 5 7 9 8 7 7 8 8 6 6 5 4 9 7 7 7 7 7 7 7 7 6 6 7 7 6 7 7 7 7 7 7 9 10 10 10
10 7 5 6 7 7 7 4 9 8 9 10 7 5 5 5 5 4 3 3 3 3 4 4 3 3 4 2 2 3 3 4 3 3 4 4 5 4 4 5 6 7 6 4 4 4 5 1 4 7 5 2 4 4 3 1 4 2 4 2 4 2 5 7 9 8 9 9 8 7 7 8 7 7 7 7 7 7 7 7 7 8 8 8 8 9 11
14 12 13 11 11 10 10 7 9 10 8 7 7 7 6 5 5 4 4 4 4 6 5 4 4 4 6 7 6 5 4 4 3 3 3 4 4 4 5 5 5 6 4 2 2 2 1 1 5 7 3 3 2 1 0 1 1 3 5 7 6 5 8 8 9 9 9 9 8 10 8 8 8 8 8 8 7 6 7 7 8 7 6 6 7 8 12
6 5 8 7 6 8 9 10 10 10 9 9 7 6 6 5 5 5 5 5 5 4 4 4 5 5 5 5 5 4 4 3 3 4 3 3 3 4 4 4 4 4 4 3 3 3 2 1 1 2 3 4 5 4 4 7 7 8 9 9 10 9 9 9 9 9 9 8 8 8 8 8 8 8 9 8 8 8 8 8 8 7 7 7 7 8 9
11 10 9 9 9 10 10 8 7 7 7 7 7 7 6 6 6 5 6 5 4 4 4 5 4 5 5 5 4 3 3 1 1 3 3 3 4 4 4 4 5 5 4 6 7 6 7 7 11 11 7 6 6 7 8 9 9 10 9 9 10 10 10 10 9 9 9 8 9 9 8 10 9 9 8 7 7 7 7 7 8 7 7 7 7 7 8
10 11 9 9 8 9 9 7 7 8 8 7 6 6 6 6 7 5 6 5 4 4 4 4 5 5 4 3 2 2 2 2 5 5 6 6 6 5 5 6 8 6 6 7 6 5 7 7 12 14 8 7 7 7 10 15 9 9 9 10 9 9 9 9 9 9 9 8 9 9 10 9 8 8 8 7 7 7 7 7 7 7 7 6 7 7 8
9 10 9 9 9 10 8 7 7 8 7 6 3 3 5 6 6 6 5 4 3 3 3 4 5 4 3 3 3 3 3 3 3 4 4 4 6 8 8 7 6 6 6 5 4 5 5 7 11 7 6 6 6 7 12 18 16 10 9 9 9 9 9 9 8 9 9 8 9 9 8 8 7 7 7 7 6 8 8 7 7 7 7 7 7 7 7
9 7 8 8 8 8 7 6 5 5 7 7 5 4 5 8 7 6 5 4 3 3 4 4 4 4 3 3 3 3 4 3 3 4 5 6 8 10 8 6 5 4 3 3 4 5 6 6 6 6 6 5 6 8 12 16 16 10 9 9 9 9 9 8 8 8 8 8 7 7 7 7 7 7 7 7 6 7 9 9 8 7 7 6 6 6 7
8 8 8 8 8 7 8 7 6 5 4 6 9 8 7 7 6 6 5 3 3 5 4 4 5 5 4 4 4 4 3 4 4 5 6 8 10 10 9 7 6 5 5 7 5 4 8 13 9 7 7 6 6 7 8 13 12 9 9 9 9 9 8 8 8 8 7 6 7 9 6 6 6 6 6 6 6 6 6 6 6 6 6 5 5 5 6
7 7 8 9 8 7 7 7 6 4 6 7 7 6 5 7 6 6 5 4 3 4 4 4 5 5 5 4 4 4 4 5 5 5 5 6 7 7 8 6 2 2 3 4 5 6 10 9 8 7 7 6 7 8 8 11 9 8 8 8 8 8 8 8 7 7 6 6 6 5 6 5 6 5 5 4 5 4 4 5 5 5 5 5 5 5 6
7 8 9 9 7 7 6 6 6 6 5 5 5 4 4 4 5 5 5 5 4 4 4 4 6 6 5 5 5 5 5 6 6 6 6 7 7 7 8 5 2 4 8 8 8 8 6 7 7 8 7 8 8 14 13 9 8 8 8 8 7 8 7 7 6 6 5 6 6 5 5 4 4 3 3 4 3 3 4 4 5 5 4 3 4 4 5
8 8 7 7 6 5 6 7 7 7 6 4 3 4 5 4 5 6 6 5 5 5 4 3 6 8 6 5 5 6 6 6 7 8 7 6 5 5 7 5 2 5 10 8 7 6 7 6 6 7 12 11 10 16 15 9 8 8 7 7 7 7 6 6 5 5 6 5 5 4 4 5 3 3 3 4 4 3 4 6 7 7 7 7 6 5 6
6 6 5 6 5 5 6 7 6 5 5 4 4 4 5 4 4 6 6 6 5 5 5 6 6 5 5 5 5 6 5 6 7 6 8 7 6 5 4 5 4 7 11 7 6 6 6 6 7 12 17 17 17 16 9 8 8 8 7 7 7 6 6 5 4 4 4 4 4 4 4 5 5 5 4 5 6 7 7 7 6 6 7 7 7 7 7
5 4 5 6 6 7 6 6 6 6 5 4 5 5 4 5 4 4 5 5 6 5 6 6 6 6 5 4 5 4 4 4 5 5 7 7 6 6 5 7 6 5 7 10 6 5 6 7 11 16 14 16 16 15 8 7 7 7 6 6 6 6 5 5 5 5 5 6 6 7 7 7 7 6 6 6 7 7 6 6 6 6 6 6 6 6 6
4 4 5 7 6 4 4 5 5 5 6 5 5 5 5 4 5 4 4 5 5 5 5 5 5 4 4 5 4 4 4 4 3 3 3 3 6 5 6 6 4 6 10 10 4 5 6 14 15 14 15 15 13 9 6 6 6 5 5 5 5 6 5 5 5 6 6 8 8 7 7 6 6 6 6 5 5 5 6 7 6 5 6 6 5 5 5
4 4 4 4 4 4 4 5 5 6 5 5 5 5 4 5 5 5 4 4 5 5 5 4 4 3 3 4 6 7 7 6 6 4 4 5 7 7 8 10 10 11 8 6 5 4 5 9 12 14 14 14 11 6 6 5 5 3 3 3 5 5 6 7 7 7 7 7 8 8 8 7 6 6 7 6 6 6 5 6 5 5 5 6 5 6 6
5 4 3 4 4 4 5 5 6 5 4 5 4 5 4 5 5 5 5 5 5 5 5 4 4 3 3 4 4 4 5 8 8 2 1 4 4 5 5 4 6 10 10 10 11 11 15 14 14 13 12 11 7 5 5 5 4 3 4 4 4 5 5 6 7 7 7 7 7 6 6 6 5 6 6 6 5 5 4 5 4 4 3 3 3 3 3
4 4 4 4 4 5 5 4 4 4 3 3 5 5 6 6 5 5 5 5 5 5 5 4 4 4 4 5 5 5 4 2 4 4 3 3 4 4 3 7 12 12 8 6 6 5 11 13 12 12 10 7 4 3 3 3 3 4 4 3 4 4 6 6 6 7 7 7 6 6 5 5 5 5 5 5 5 4 4 4 3 3 2 2 3 3 3
3 3 3 3 3 4 3 3 3 4 3 4 6 5 6 6 6 3 4 5 5 5 4 4 3 3 4 5 5 6 6 6 6 5 4 4 4 3 4 7 7 10 10 6 5 5 9 12 10 9 6 3 2 3 3 3 4 5 5 6 5 5 5 6 6 7 6 6 6 5 5 4 3 5 5 4 3 3 3 2 2 4 5 4 2 2 2
2 3 2 1 2 1 1 1 3 5 4 4 5 6 6 6 5 4 4 6 6 6 6 4 3 4 4 5 5 5 5 4 5 6 4 3 2 4 5 5 8 7 6 6 5 5 4 4 3 5 5 5 4 3 3 4 4 4 6 6 5 5 5 6 6 6 5 5 5 5 4 4 4 3 3 2 3 2 2 2 1 1 1 1 2 3 3
3 2 3 5 5 5 5 5 3 2 4 6 6 6 6 6 6 5 5 7 6 6 6 6 4 2 3 4 5 5 5 6 6 6 6 7 7 6 7 9 7 7 6 6 5 3 2 2 4 6 6 5 4 4 5 5 3 3 4 5 5 4 5 5 6 6 6 6 6 5 5 4 3 4 3 2 2 1 1 0 0 1 2 2 2 2 2
Wind_Direction
220 201 223 246 232 205 224 241 252 265 274 275 189 225 216 138 193 218 242 195 199 235 218 211 201 181 185 174 163 156 157 158 158 161 160 149 131 116 136 161 169 165 177 183 179 181 175 161 141 138 113 357 328 319 279 284 294 277 242 256 295 305 300 289 287 281 280 279 275 279 284 285 287 296 300 302 300 297 290 285 281 284 292 294 304 307 307
292 296 272 293 314 313 319 304 292 276 249 242 220 220 204 181 205 219 224 196 214 222 229 228 205 146 139 139 141 134 143 163 168 163 157 141 142 145 160 176 186 192 190 180 182 172 179 161 154 151 178 195 240 252 273 283 286 268 252 261 281 298 288 280 282 280 271 270 274 280 284 285 289 292 300 308 308 308 307 298 291 294 295 297 300 304 310
307 289 323 339 354 4 301 298 290 282 252 248 237 230 203 188 240 260 243 204 249 262 217 204 145 139 127 126 142 159 166 157 160 160 153 158 160 176 187 191 200 202 191 181 169 162 168 179 171 180 199 189 201 237 250 269 275 267 250 276 285 278 281 279 277 278 271 260 267 278 276 283 295 302 306 310 312 314 310 301 296 296 299 305 306 305 307
301 306 8 317 2 351 299 292 305 292 300 304 289 275 240 231 249 185 100 272 262 288 68 102 124 136 142 147 149 148 161 167 158 157 169 168 178 187 195 202 202 195 173 166 162 161 177 184 187 175 168 194 205 244 254 259 258 264 271 271 274 279 264 276 277 278 267 265 272 277 286 288 299 303 300 308 307 307 306 304 305 303 302 298 298 300 300
252 259 75 351 356 9 328 287 235 252 276 253 287 316 24 263 146 113 170 236 208 177 143 116 124 129 134 143 157 154 164 170 161 167 177 188 189 190 198 200 197 180 169 168 166 175 179 182 185 191 172 184 221 238 246 251 245 258 262 258 269 276 269 265 277 274 268 273 278 280 280 282 288 295 298 296 297 302 303 304 306 306 297 296 293 298 305
247 282 355 110 38 313 242 229 201 236 276 279 282 279 194 222 143 193 184 180 149 148 145 141 156 157 171 168 185 166 161 167 179 184 187 192 191 198 198 197 189 177 168 168 177 182 186 195 193 180 183 190 217 220 231 250 243 249 245 266 258 271 269 269 269 273 272 276 282 278 277 282 285 291 292 289 285 280 282 290 297 300 298 300 294 298 309
231 288 31 352 259 248 239 263 280 270 262 254 242 230 190 208 113 101 108 129 155 174 164 164 168 165 157 152 151 183 176 167 177 183 193 189 191 194 195 191 180 170 172 175 180 186 195 198 193 185 210 215 217 227 232 246 236 234 245 257 282 276 271 270 271 277 285 280 286 288 281 277 286 287 286 289 293 293 290 291 293 287 288 302 296 297 302
84 55 98 228 239 235 282 298 285 282 278 254 215 287 338 311 233 146 137 150 153 148 143 154 154 152 161 157 188 189 193 183 171 174 184 192 178 181 189 177 177 175 176 178 180 186 198 190 196 195 209 202 193 224 230 231 240 238 243 261 280 285 272 274 277 281 283 295 296 296 288 282 286 293 299 297 297 300 297 291 277 270 280 286 288 300 306
190 199 166 225 284 325 325 315 298 332 275 249 184 217 304 344 293 152 136 148 155 147 157 153 142 116 91 121 234 246 205 203 191 175 185 176 187 181 185 172 180 187 181 177 184 179 189 198 195 212 214 198 200 217 237 242 235 251 264 281 283 277 274 278 282 283 284 287 295 296 294 291 292 299 304 306 307 305 308 299 290 277 269 278 288 294 323
145 148 267 335 320 258 269 242 256 288 256 241 202 109 354 304 333 259 134 152 148 141 137 137 147 112 95 152 253 232 215 206 200 205 177 175 171 170 177 188 170 173 182 182 183 176 191 205 213 214 211 212 210 213 222 234 237 258 269 271 267 265 267 276 281 289 292 292 296 299 299 293 292 294 294 287 284 298 307 303 297 268 262 287 311 300 330
129 153 202 202 198 241 217 240 257 264 261 153 103 70 329 282 323 283 147 143 150 152 154 164 149 125 174 230 241 230 206 209 198 176 182 166 169 176 178 171 174 184 186 181 181 174 179 212 232 209 207 207 212 226 234 237 234 242 254 253 257 259 263 266 280 293 293 297 299 301 296 290 287 293 294 289 292 303 299 302 291 275 271 289 316 312 307
176 168 177 229 207 234 252 229 264 280 213 33 71 264 263 251 272 81 123 141 154 160 157 145 140 148 195 239 247 215 203 190 153 154 168 172 183 187 171 189 176 178 177 147 139 165 187 218 220 191 192 196 216 229 243 241 237 238 240 241 243 247 256 267 275 283 293 305 304 299 291 294 297 291 290 302 308 311 324 340 319 299 279 298 310 305 312
191 172 226 339 303 276 247 237 271 334 288 73 158 216 226 245 184 176 122 146 161 154 160 158 163 223 188 204 237 92 107 115 161 183 181 183 181 170 178 180 171 163 172 168 177 188 201 200 188 181 170 180 211 221 222 216 231 234 239 248 249 243 253 266 276 286 300 299 297 295 287 286 290 302 309 306 314 328 332 339 338 333 296 280 290 290 305
175 192 184 218 222 232 202 237 131 307 120 213 217 230 191 141 141 159 128 138 161 157 170 191 185 227 216 213 141 137 164 176 185 182 188 152 128 168 172 166 154 154 153 170 186 216 228 196 190 185 176 197 223 227 226 235 240 236 237 246 247 253 259 265 282 293 296 298 293 290 305 317 324 317 315 321 317 328 322 331 340 354 354 317 272 278 285
72 88 177 265 250 274 206 189 18 31 118 232 195 163 210 182 155 145 143 137 182 132 161 216 181 163 144 132 149 158 179 168 175 176 159 152 154 152 155 159 168 152 159 172 193 208 214 209 201 197 182 209 227 227 229 243 244 241 235 236 244 251 271 286 289 289 284 282 308 329 325 323 330 317 316 326 322 330 325 327 332 350 9 338 334 312 280
166 179 196 197 211 209 213 124 171 226 180 191 177 142 168 217 154 145 122 145 186 167 144 178 175 192 186 205 182 184 189 188 177 172 159 155 158 162 176 179 182 165 167 189 202 217 216 212 210 192 185 213 227 226 239 247 251 252 250 230 249 265 279 282 290 278 280 301 328 338 334 326 328 323 320 322 320 315 321 316 321 325 6 333 348 346 320
145 197 209 237 214 174 201 145 181 191 194 166 174 153 159 170 211 175 119 166 190 160 153 157 166 176 219 204 191 167 194 182 174 174 175 170 171 176 178 188 184 173 180 191 202 217 231 235 236 219 203 212 229 237 249 243 247 249 241 218 226 249 272 272 272 282 296 324 342 340 328 325 322 323 319 327 323 320 330 321 315 304 334 336 345 325 316
247 222 152 183 119 145 154 257 151 162 175 71 132 132 119 215 198 171 157 171 155 151 128 109 262 206 214 232 256 233 184 174 178 174 173 177 180 176 167 174 181 185 188 183 186 208 235 236 233 231 219 202 228 237 259 278 269 259 241 224 212 207 246 269 278 278 316 340 329 322 307 307 277 268 264 290 309 314 327 314 298 289 312 338 320 311 292
142 247 304 202 212 344 106 115 59 46 72 155 159 128 118 169 164 107 138 145 157 162 156 162 194 247 283 292 279 276 178 177 162 164 169 180 190 183 172 190 174 175 175 181 199 210 226 236 227 234 233 216 226 262 288 287 272 242 224 210 187 198 248 313 288 18 14 285 298 307 304 319 328 331 324 327 332 332 338 334 319 308 310 321 300 285 292
127 213 255 42 54 49 24 24 85 87 83 78 71 102 110 96 94 113 144 111 70 81 38 25 118 283 250 215 258 258 205 176 178 182 179 176 179 209 194 191 178 174 186 197 211 222 239 250 232 227 233 246 239 244 271 277 309 324 189 176 169 196 210 241 270 71 194 240 231 296 308 324 350 338 333 338 340 328 323 325 332 319 315 311 289 256 270
285 35 69 90 54 39 30 40 48 99 108 104 99 101 89 83 84 79 58 77 122 91 86 80 71 24 337 311 230 179 140 125 139 169 183 188 184 172 173 188 180 187 196 206 215 217 239 242 233 239 249 258 246 226 251 282 27 127 148 175 164 204 194 211 240 195 176 230 250 265 305 339 316 276 257 305 315 313 308 150 317 306 310 298 279 241 231
1 184 187 167 85 136 252 78 109 113 123 105 104 85 72 81 96 104 100 67 70 89 106 133 133 123 107 334 90 161 167 170 167 162 168 176 175 187 191 187 195 203 208 208 214 228 243 240 229 233 248 255 262 229 221 270 147 173 292 167 184 214 231 198 212 217 277 260 255 273 295 308 327 321 300 227 213 272 320 348 359 57 189 266 297 306 266
241 235 232 205 148 146 189 170 186 176 167 112 100 93 91 100 140 145 114 94 54 64 46 67 100 106 96 46 135 137 174 190 185 177 171 172 181 186 187 186 207 212 223 228 232 242 247 246 232 227 234 243 247 244 214 175 170 219 190 168 228 255 261 292 228 196 200 258 276 274 274 290 320 324 327 327 311 217 286 359 9 2 7 319 310 312 334
224 205 192 176 138 162 202 218 194 178 163 111 104 98 102 123 151 135 112 104 94 97 89 58 107 136 119 152 149 174 198 193 172 190 199 192 187 189 193 199 203 208 224 232 233 239 251 256 256 254 253 267 260 257 243 197 165 153 168 176 205 229 236 237 222 191 203 225 255 275 293 294 327 13 352 337 326 336 15 17 6 15 10 3 349 328 353
185 213 168 182 147 157 180 180 164 134 133 113 109 104 91 93 94 101 89 63 91 130 130 128 78 97 123 188 193 186 183 190 196 195 203 206 215 206 216 222 225 223 227 231 245 263 276 276 275 272 261 265 260 258 259 247 200 175 184 188 199 216 215 220 229 225 203 237 260 279 284 307 339 359 352 337 335 330 331 349 21 45 31 31 19 2 350
121 178 188 169 128 162 159 71 61 100 108 101 93 85 87 113 107 80 81 120 115 121 128 139 139 196 161 148 174 178 147 127 145 77 47 356 326 316 279 251 266 268 275 285 283 278 279 275 273 273 269 266 267 279 275 192 199 210 203 198 194 197 203 211 208 221 238 244 264 275 307 313 307 345 326 325 326 324 346 348 353 29 51 50 37 16 19
162 162 109 53 47 106 161 144 178 173 124 117 113 123 126 110 99 99 105 114 130 135 139 155 152 150 62 72 110 125 144 131 119 125 158 168 214 231 250 304 314 293 274 273 274 274 275 269 253 240 254 277 301 276 264 255 242 241 233 225 227 240 251 226 176 212 235 260 260 289 11 9 6 337 329 329 328 345 31 8 6 7 352 355 38 47 13
164 170 161 158 185 186 210 195 146 145 123 121 112 111 121 97 81 82 92 103 104 119 123 135 139 133 139 149 119 113 125 146 179 191 178 203 215 219 219 240 283 291 291 285 284 300 314 324 323 308 277 263 262 260 253 253 253 248 236 218 217 224 244 247 146 195 250 241 262 234 95 29 12 351 347 345 348 354 23 29 34 24 359 358 342 337 9
231 212 345 145 170 158 130 115 106 110 110 121 111 105 95 76 61 64 60 125 166 138 128 144 127 152 152 191 164 169 172 174 181 195 208 216 218 223 230 227 229 229 230 224 113 24 30 356 324 304 280 274 265 265 260 246 240 238 229 209 205 203 171 158 174 184 158 71 77 63 53 51 48 31 24 20 20 24 34 41 34 26 21 359 358 0 349
84 92 92 87 88 108 104 90 93 87 77 72 69 59 68 86 75 63 64 48 35 55 318 344 14 333 189 208 215 201 191 200 198 197 198 215 220 221 221 215 150 114 101 95 78 63 75 65 282 279 288 308 318 309 301 282 262 247 216 196 189 173 173 182 158 117 86 83 81 80 70 62 52 56 51 41 40 34 43 44 39 35 27 22 23 16 4
101 96 104 107 95 85 96 104 80 66 68 69 81 80 71 80 88 77 57 49 50 48 27 79 272 285 273 243 237 201 175 169 179 185 215 231 233 228 227 165 142 132 100 59 33 23 0 343 321 313 315 346 9 9 5 358 21 36 28 7 4 57 144 118 91 92 93 93 80 72 63 55 50 51 49 49 40 42 46 46 45 35 33 29 28 22 9
118 116 115 111 114 108 101 100 89 89 93 91 79 72 75 83 81 74 51 42 39 50 36 34 18 330 287 276 120 144 148 150 153 166 101 75 132 262 134 117 105 105 105 105 95 78 56 342 321 315 318 10 33 44 38 345 340 29 23 43 72 325 13 75 79 78 81 74 72 65 61 59 48 47 49 42 44 53 53 55 48 44 39 38 34 24 8
125 113 111 131 119 119 117 122 109 105 98 92 95 102 90 85 88 83 84 95 82 57 49 39 19 350 332 315 120 118 108 87 70 63 50 35 27 35 51 77 91 102 101 104 123 124 114 188 280 294 292 53 58 59 66 300 288 131 155 117 28 21 75 66 75 77 70 66 64 64 64 61 56 52 46 48 47 53 55 57 54 47 41 35 32 24 16
160 175 176 173 153 150 136 124 118 117 113 111 119 112 102 93 91 88 85 84 76 61 55 49 34 39 48 55 56 65 79 82 78 67 61 52 48 45 50 66 64 70 63 34 28 52 103 270 276 262 286 20 62 100 16 339 23 54 62 84 109 97 69 61 65 71 71 66 61 62 60 62 61 56 51 47 44 43 51 52 52 49 39 33 24 22 17
139 117 128 135 122 123 123 125 127 131 133 130 124 114 115 110 98 105 108 88 78 88 82 67 54 50 54 57 66 67 73 80 70 67 68 53 47 77 84 85 83 79 71 47 29 23 352 207 168 18 11 19 22 14 45 68 74 79 81 78 74 71 67 64 61 63 69 72 67 63 57 58 59 58 57 55 50 48 47 47 46 46 45 35 25 21 20
112 110 110 104 105 108 111 119 127 130 127 120 119 120 115 112 107 105 99 93 94 91 86 79 70 66 60 56 55 65 88 105 104 85 86 80 84 99 102 94 80 69 56 44 25 18 19 16 33 43 35 27 31 51 74 79 75 76 77 77 75 73 71 67 65 64 61 62 65 60 56 58 60 59 58 55 53 49 48 48 46 44 47 40 34 29 26
107 112 113 109 106 105 106 108 116 113 113 117 117 109 101 98 101 97 92 91 101 117 117 106 86 75 62 40 49 59 73 104 111 113 117 116 111 100 92 90 80 68 49 44 4 7 15 11 25 33 32 31 44 65 76 82 80 77 78 76 76 75 75 73 69 66 64 61 65 66 63 57 52 51 51 53 54 54 51 48 48 47 40 41 42 40 33
110 111 109 106 105 104 106 112 113 111 105 94 87 106 122 118 112 113 116 118 125 124 102 92 96 94 72 53 51 51 42 35 72 103 102 93 100 93 70 58 54 61 54 26 348 20 27 15 17 22 24 34 49 73 83 85 86 82 80 80 80 79 77 76 76 73 71 69 69 67 64 60 58 53 47 44 43 55 55 54 54 50 45 41 42 40 36
95 89 88 89 90 94 96 87 79 81 109 126 127 104 101 113 122 121 118 122 136 116 98 96 90 80 72 83 80 62 48 36 50 74 83 79 81 81 79 73 68 60 68 49 10 23 21 21 20 23 35 39 65 74 82 84 84 82 82 82 81 80 79 77 75 76 77 82 80 76 71 68 59 58 50 48 48 49 55 59 56 49 45 41 38 38 39
102 99 99 92 86 84 81 81 86 95 106 120 117 116 120 118 128 123 121 113 130 127 120 119 106 100 82 77 78 78 65 60 58 69 78 87 89 86 81 60 49 48 52 54 39 25 42 46 44 48 49 55 61 71 81 86 85 81 82 82 83 83 82 81 80 79 75 69 79 86 85 82 80 71 64 60 52 56 52 45 41 34 31 29 31 34 41
101 96 90 90 90 86 93 99 101 106 105 100 102 114 127 134 135 131 142 136 127 122 127 121 108 94 89 93 97 99 88 75 66 65 71 89 93 93 89 84 44 348 47 64 50 43 48 52 52 52 47 60 70 76 75 81 80 81 84 86 86 88 88 86 83 82 84 84 87 87 93 93 88 84 82 73 64 55 49 50 48 43 31 24 15 16 20
109 108 109 109 108 105 106 116 114 96 83 97 109 114 114 121 124 129 130 123 118 118 123 122 119 113 112 109 107 99 94 89 84 74 72 91 105 113 104 108 116 93 81 69 55 51 41 44 56 64 59 59 64 77 78 75 72 78 79 81 83 84 87 89 89 87 85 82 79 74 75 76 80 83 77 73 70 64 52 44 39 37 26 23 20 17 17
121 118 116 110 109 105 114 121 118 119 117 111 105 102 103 105 106 108 107 108 107 104 106 111 111 105 105 107 111 103 101 103 101 99 90 79 90 103 111 120 99 85 79 70 64 52 50 44 64 74 77 75 74 72 71 66 66 70 74 79 79 79 78 79 78 79 78 75 69 68 76 81 79 75 71 60 52 51 46 43 36 30 31 26 20 19 20
118 113 115 112 110 116 118 115 111 109 106 104 96 98 102 101 109 118 118 116 110 106 109 105 104 111 117 124 120 116 114 113 109 108 106 107 95 82 86 99 101 86 80 72 58 54 50 60 73 78 77 77 76 74 68 66 68 69 71 70 71 71 72 65 61 64 68 69 75 74 73 79 70 58 49 54 57 61 61 52 38 38 40 39 39 38 36
108 114 110 109 112 110 119 128 136 138 136 124 109 104 102 103 102 110 117 115 112 114 115 117 123 131 137 130 114 109 107 108 114 119 118 123 121 124 122 112 99 92 83 81 66 65 64 73 85 86 86 84 82 79 71 71 77 79 79 79 78 79 74 71 65 63 64 65 67 71 75 69 68 67 66 65 66 68 68 58 48 39 43 43 42 38 31
90 97 109 108 104 114 133 134 130 119 118 116 112 109 113 114 113 106 108 112 111 113 124 127 129 135 135 123 117 108 95 87 78 67 84 121 125 133 133 124 116 110 94 84 64 62 83 100 98 95 92 90 87 80 80 84 87 91 95 91 89 78 71 62 63 66 81 88 79 70 67 69 73 79 79 71 71 68 67 65 58 45 44 43 37 43 36
99 93 93 107 114 110 104 115 126 120 113 115 119 118 117 110 105 108 109 108 111 116 116 115 110 110 114 125 130 122 111 91 61 37 66 82 108 119 126 123 115 106 94 82 79 80 81 93 100 103 103 99 94 87 87 90 91 91 85 83 82 79 75 71 66 66 67 76 81 82 81 76 68 66 71 72 69 67 62 61 57 52 46 47 39 33 34
111 109 98 98 100 96 94 101 115 135 147 163 147 126 122 119 119 119 116 109 106 109 106 104 111 110 108 106 106 114 129 130 112 64 34 103 113 118 110 99 120 112 98 87 88 86 89 93 96 99 100 96 89 92 94 93 90 88 83 77 73 72 69 76 81 79 80 85 86 88 81 79 80 78 77 75 71 68 66 59 57 52 50 43 35 28 29
108 108 106 99 96 96 106 117 125 133 168 159 124 126 127 124 123 120 120 118 119 119 122 120 108 107 107 115 115 108 101 110 127 160 184 141 117 114 124 118 106 99 92 91 82 83 92 93 96 97 97 89 78 84 86 81 91 97 92 81 72 73 76 85 96 102 100 98 100 97 98 97 91 89 81 77 70 62 56 50 43 46 42 34 21 15 13
124 113 102 100 112 111 125 125 142 172 171 144 137 133 128 123 116 122 128 130 129 122 114 114 116 110 101 94 96 101 102 104 108 122 129 118 111 116 115 104 114 122 116 108 104 92 96 95 91 89 82 74 85 89 80 79 76 97 105 104 96 87 88 95 97 98 105 108 102 102 101 101 99 97 97 92 82 67 62 59 45 34 29 15 1 344 334
125 116 130 102 61 90 150 190 201 188 173 146 137 135 129 126 128 127 129 132 128 124 121 112 109 116 107 102 96 103 104 99 98 97 86 90 115 128 127 129 135 133 118 102 98 93 84 79 73 80 82 86 86 90 83 78 79 92 106 118 117 113 110 109 114 112 109 104 110 111 112 109 110 106 98 94 86 88 79 59 36 6 339 321 305 286 278
52 87 79 67 61 46 39 27 29 92 120 121 125 129 131 130 125 123 126 136 133 136 129 127 113 85 91 88 86 76 81 87 82 80 85 84 77 63 88 107 117 125 114 113 113 115 132 145 120 112 106 91 76 71 90 96 95 102 114 118 121 118 115 116 116 117 114 116 118 120 119 120 118 117 123 123 123 129 117 114 58 325 315 307 289 287 291